Location: Drzenin
(53.2491°N, 14.6545°E)
Time: 12:45:56
(UTC+00:00)

Daily predictions for brighter satellites

Satellite Brightness Start Highest point End
(mag) Time Altitude Azimuth Time Altitude Azimuth Time Altitude Azimuth
Sich 1 3.1 15:24:32 10° N 15:28:52 57° ENE 15:33:09 10° SSE
Cosmos 1869 4.3 15:25:37 10° SSW 15:29:37 49° WNW 15:33:39 10° N
SMAP 3.6 15:25:21 10° SE 15:29:38 38° ENE 15:33:57 10° N
SL-8 Rocket 4.3 15:28:52 10° N 15:34:52 46° ENE 15:40:53 10° SE
YAOGAN 1 4.5 15:34:18 10° ENE 15:35:13 11° NE 15:36:07 10° NE
CZ-4C R/B 3.9 15:32:30 10° NNE 15:35:49 32° E 15:39:06 10° SSE
Cosmos 2341 Rocket 4.1 15:30:02 10° N 15:36:16 59° ENE 15:42:31 10° SSE
Cosmos 1151 Rocket 4.2 15:33:49 10° SE 15:37:07 22° E 15:40:25 10° NE
Cosmos 2278 Rocket 4.2 15:32:36 10° NW 15:37:38 33° WSW 15:42:38 10° S
Radarsat Rocket 4.2 15:34:18 10° SSE 15:40:34 72° ENE 15:47:42 10° NNW
CZ-2C R/B 4.3 15:40:20 10° E 15:43:16 16° NE 15:46:10 10° NNE
CZ-4B DEB 4.2 15:37:56 10° SSE 15:43:26 84° ENE 15:48:56 10° NNW
Cosmos 2360 Rocket 3.8 15:40:07 10° W 15:44:41 25° NW 15:49:16 10° NNE
USA 281 4.0 15:39:40 10° E 15:45:13 30° NE 15:50:47 10° NNW
Cosmos 2333 Rocket 3.3 15:40:07 10° WSW 15:45:27 40° NW 15:50:47 10° NNE
Cosmos 2285 Rocket 4.0 15:40:02 10° NNW 15:46:29 74° ENE 15:52:50 10° SSE
SL-16 R/B 4.3 15:41:48 10° N 15:46:54 27° NW 15:52:00 10° WSW
COSMO-SKYMED 1 4.4 15:45:53 11° ENE 15:47:11 12° E 15:48:46 10° ESE
Cosmos 2219 Rocket 3.2 15:42:26 10° WSW 15:47:45 41° NW 15:53:05 10° NNE
USA 81 4.4 15:43:40 10° N 15:48:42 43° ENE 15:53:43 10° SSE
TELKOM 3 4.4 15:47:12 10° WSW 15:49:59 38° S 15:52:21 10° ESE
COSMOS 2428 3.7 15:47:11 10° WSW 15:52:38 44° NW 15:58:07 10° NNE
USA 267 3.4 15:47:28 10° E 15:53:57 67° N 16:00:27 10° WNW
CORIOLIS 4.3 15:48:43 10° SE 15:54:00 56° ENE 15:59:20 10° N
PAYLOAD B 4.3 15:50:51 10° SSE 15:56:26 88° ENE 16:02:01 10° NNW
Cosmos 1805 Rocket 4.2 15:52:55 10° NNW 15:57:20 63° W 16:01:43 10° S
NOSS 0 Rocket 4.2 15:51:42 10° SW 15:57:55 69° NW 16:04:10 10° NNE
H-2A R/B 3.4 15:55:29 10° E 15:58:40 17° NE 16:01:49 10° NNE
Cosmos 1356 3.9 15:55:33 10° NNW 15:58:59 65° W 16:02:22 10° S
Helios 1A Rocket 4.4 15:57:11 11° E 15:59:20 16° NE 16:01:48 10° NNE
Cosmos 1980 Rocket 4.2 15:57:36 10° NNW 16:00:01 13° N 16:02:28 10° NNE
Cosmos 44 Rocket 3.8 15:55:47 10° NW 16:00:41 43° NNE 16:05:39 10° ESE
Meteor 1-20 Rocket 4.3 15:54:53 10° N 16:00:46 71° ENE 16:06:34 10° SSE
Meteor 1-4 Rocket 3.8 15:58:47 10° SE 16:01:33 21° E 16:03:14 15° NE
Cosmos 1933 Rocket 4.3 15:59:29 10° N 16:03:30 31° ENE 16:07:30 10° SE
Cosmos 1328 Rocket 4.2 16:00:47 10° SSE 16:04:42 35° E 16:08:40 10° NNE
Cosmos 1666 Rocket 3.5 16:00:18 10° N 16:04:45 82° E 16:09:12 10° SSE
Cosmos 2181 Rocket 4.2 15:58:51 10° SSE 16:04:59 50° E 16:11:04 10° NNE
Cosmos 1939 Rocket 3.6 16:01:57 10° SE 16:05:20 28° ENE 16:08:45 10° N
Cosmos 389 Rocket 2.3 16:04:10 10° S 16:07:34 88° ESE 16:11:01 10° NNE
CZ-4 R/B 2.8 16:05:25 12° E 16:07:39 18° ENE 16:10:30 10° NNE
Cosmos 2237 Rocket 2.5 16:02:09 10° SW 16:07:45 68° NW 16:13:25 10° NNE
Cosmos 1602 4.0 16:04:27 10° N 16:08:14 44° ENE 16:11:59 10° SSE
NOAA 11 4.2 16:04:25 10° SE 16:09:44 58° ENE 16:15:05 10° N
CZ-4B R/B 3.1 16:05:34 10° SSE 16:10:53 85° ENE 16:16:13 10° NNW
SL-16 R/B 4.3 16:08:10 10° NW 16:11:28 15° NNW 16:14:45 10° NNE
H-2A R/B 3.0 16:09:35 10° S 16:13:45 63° WSW 16:17:47 10° NNW
Cosmos 2369 Rocket 2.2 16:08:25 10° NNW 16:14:08 68° NE 16:19:47 10° SE
ADEOS Rocket 3.7 16:07:27 10° NNE 16:15:15 87° WNW 16:23:00 10° SSW
Cosmos 1943 Rocket 2.3 16:10:08 10° NNW 16:15:43 83° WSW 16:21:19 10° SSE
Meteor 1-14 Rocket 4.5 16:10:11 10° N 16:16:02 54° ENE 16:21:54 10° SSE
H-2A R/B 2.0 16:15:38 10° NNE 16:19:50 67° ESE 16:24:06 10° S
NOAA 12 4.2 16:15:13 10° SSE 16:20:33 87° WSW 16:25:55 10° NNW
CENTAUR R/B 4.3 16:20:03 10° ESE 16:20:31 10° ESE 16:20:31 10° ESE
CZ-2D R/B 4.0 16:19:22 10° SE 16:22:44 30° ENE 16:26:08 10° N
Cosmos 2056 Rocket 4.4 16:22:25 10° NNW 16:26:55 27° NE 16:29:05 21° E
Okean O Rocket 1.7 16:22:56 10° SSE 16:27:19 81° WSW 16:31:45 10° NNW
CRYOSAT 2 4.5 16:22:26 10° N 16:27:21 81° W 16:32:15 10° S
Cosmos 1980 4.5 16:22:19 10° SW 16:27:50 50° NW 16:33:23 10° NNE
ARGOS 4.3 16:27:00 20° ENE 16:28:12 22° NE 16:32:14 10° N
Cosmos 1782 3.2 16:24:45 10° SSE 16:28:29 40° E 16:31:07 17° NNE
Okean-O 3.4 16:25:07 10° ESE 16:28:57 30° ENE 16:32:51 10° N
Cosmos 1633 Rocket 3.3 16:24:36 10° NNW 16:28:59 72° W 16:33:19 10° S
ISS -3.6 16:27:58 10° W 16:31:19 67° S 16:32:58 27° ESE
Cosmos 1933 3.3 16:30:05 10° S 16:34:09 90° W 16:38:16 10° N
Cosmos 2218 Rocket 4.0 16:29:08 10° N 16:35:19 87° W 16:41:30 10° S
SKYMED 2 4.4 16:34:31 25° ENE 16:35:49 30° E 16:39:39 10° SSE
Cosmos 2366 rocket 4.0 16:30:04 10° N 16:36:18 89° W 16:42:28 10° S
ERS-2 2.8 16:36:10 31° ENE 16:36:55 34° E 16:40:16 10° SSE
Cosmos 1869 Rocket 4.3 16:34:14 10° N 16:38:14 30° ENE 16:40:22 21° ESE
Cosmos 1867 3.7 16:35:38 10° SW 16:41:05 73° NW 16:44:54 20° NE
Cosmos 371 Rocket 3.8 16:43:24 10° NNW 16:47:58 37° NE 16:49:18 31° E
Lacrosse 5 rocket 0.9 16:45:39 10° WSW 16:49:17 82° SSE 16:50:15 46° ENE
Cosmos 773 Rocket 3.9 16:45:24 10° SSW 16:50:41 84° ESE 16:54:45 18° NNE
NOSS 3-2 (A) 4.3 16:48:38 10° SSE 16:53:19 26° ESE 16:54:01 26° ESE
Cosmos 2322 Rocket 4.3 16:52:12 10° NW 16:54:56 13° N 16:57:38 10° NNE
Cosmos 1606 4.5 16:52:31 10° SW 16:56:02 32° WNW 16:59:34 10° N
CZ-4B R/B 1.0 16:56:26 66° E 16:56:31 67° ESE 16:59:39 10° S
Cosmos 2239 Rocket 4.5 16:51:14 10° N 16:57:18 55° ENE 17:03:21 10° SSE
Feng Yun 1-1 Rocket 4.3 16:52:10 10° SSE 16:57:53 87° WSW 17:03:29 10° NNW
SL-16 R/B 2.4 16:55:14 10° SW 17:00:53 70° NW 17:05:04 19° NNE
USA 215 4.2 16:59:21 25° ESE 17:01:06 28° SE 17:06:35 10° S
BREEZE-M DEB (TANK) 3.9 17:02:24 10° SW 17:03:26 18° SSW 17:03:26 18° SSW
Cosmos 1500 3.0 17:00:48 10° N 17:04:38 78° ENE 17:08:28 10° SSE
Cosmos 1697 Rocket 4.3 17:03:14 10° NNW 17:07:00 18° NNE 17:07:04 18° NNE
Cosmos 1656 Rocket 3.6 17:03:58 10° NNW 17:09:40 87° WSW 17:15:15 10° SSE
SL-24 DEB 4.1 17:05:28 10° N 17:10:15 73° E 17:14:56 10° S
YAOGAN 1 2.5 17:09:19 42° ESE 17:10:25 56° ENE 17:14:41 10° N
USA 238 DEB 4.3 17:06:38 10° S 17:12:24 33° ESE 17:13:06 33° ESE
USA 238 4.3 17:06:45 10° S 17:12:31 33° ESE 17:13:11 32° ESE
MOS 1 Rocket 4.0 17:13:25 41° E 17:13:25 41° E 17:18:26 10° SSE
Cosmos 1151 Rocket 3.9 17:10:16 10° SSW 17:14:24 48° WNW 17:18:33 10° N
OPS 6432 4.5 17:14:36 10° SW 17:18:25 74° NW 17:18:25 74° NW
NOAA 15 4.4 17:14:19 10° SSE 17:19:34 73° ENE 17:24:51 10° NNW
Cosmos 1934 Rocket 4.0 17:13:56 10° N 17:20:14 57° ENE 17:26:27 10° SSE
Cosmos 158 Rocket 4.4 17:17:07 10° S 17:20:55 39° SE 17:20:55 39° SE
Cosmos 1515 Rocket 3.7 17:17:56 10° SSW 17:22:19 74° WNW 17:25:08 22° N
CZ-2C R/B 2.7 17:17:34 10° SSE 17:22:31 82° ENE 17:27:19 10° NNW
Cosmos 332 Rocket 4.2 17:18:49 10° NNW 17:22:42 43° NNE 17:22:42 43° NNE
Cosmos 1238 Rocket 2.8 17:19:47 10° N 17:23:38 82° E 17:28:19 10° SSE
COSMO-SKYMED 1 2.4 17:23:06 54° NNE 17:24:05 81° ESE 17:28:26 10° SSW
Cosmos 923 Rocket 4.2 17:20:10 10° S 17:24:50 48° ESE 17:24:50 48° ESE
USA 281 3.1 17:22:31 10° SSE 17:29:07 90° E 17:35:45 10° NNW
CSL-04 Debris 4.1 17:27:30 32° SE 17:30:01 65° ENE 17:35:29 10° NNW
X-37B 3.1 17:28:09 10° SW 17:29:28 16° SSW 17:29:28 16° SSW
Cosmos 2360 Rocket 4.3 17:28:13 10° NW 17:30:50 13° N 17:32:35 12° NNE
Cosmos 2333 Rocket 4.3 17:27:50 10° WNW 17:31:21 16° NNW 17:34:05 12° NNE
Nadezhda 3 Rocket 3.9 17:25:25 10° S 17:31:46 75° E 17:38:09 10° NNE
Cosmos 2219 Rocket 4.3 17:29:49 10° WNW 17:33:18 16° NNW 17:36:03 12° N
Helios 1A Rocket 2.9 17:33:25 64° S 17:33:59 79° WSW 17:38:02 10° NNW
Meteor 2-6 Rocket 4.0 17:29:16 10° S 17:34:48 80° ESE 17:37:15 34° NNE
Cosmos 2228 Rocket 3.1 17:30:21 10° S 17:34:28 71° SSE 17:34:28 71° SSE
Cosmos 1821 Rocket 4.1 17:29:56 10° NNW 17:36:11 75° W 17:42:29 10° S
Meteor 1-4 Rocket 4.0 17:33:04 10° SW 17:36:23 35° WNW 17:37:26 28° NNW
USA 267 3.2 17:34:11 39° ESE 17:36:55 84° SSW 17:43:30 10° WNW
H-2A R/B 1.9 17:35:18 37° SSE 17:37:22 76° ENE 17:42:28 10° NNW
Cosmos 1812 4.3 17:34:50 10° S 17:36:35 26° S 17:36:35 26° S
Meteor 1-11 Rocket 3.7 17:33:37 10° NNW 17:39:24 85° ENE 17:45:19 10° SSE
Cosmos 1939 Rocket 4.4 17:36:36 10° SSW 17:40:11 35° W 17:43:50 10° NNW
CZ-4 R/B 1.7 17:41:27 51° SSW 17:42:15 65° WSW 17:46:20 10° NNW
Cosmos 44 Rocket 4.1 17:37:23 10° NW 17:42:25 54° SW 17:45:08 26° S
CSL-04 Rocket 3.4 17:44:04 65° SE 17:44:49 77° ENE 17:50:08 10° NNW
Cosmos 1980 Rocket 4.0 17:42:41 10° NNW 17:45:17 17° N 17:45:17 17° N
Cosmos 1680 Rocket 4.2 17:46:49 10° S 17:50:19 41° S 17:50:19 41° S
Cosmos 2237 Rocket 4.1 17:48:34 10° W 17:52:54 22° NNW 17:55:40 16° N
H-2A R/B 4.5 17:52:25 10° NNW 17:55:26 19° WNW 17:58:28 10° WSW
Cosmos 1603 3.6 17:50:46 10° SSW 17:56:23 85° WNW 17:56:56 74° NNE
Cosmos 2369 Rocket 4.2 17:53:03 10° NW 17:57:43 27° WSW 18:02:21 10° SSW
SL-16 R/B 4.3 17:55:15 10° NNW 17:57:42 14° N 17:57:42 14° N
Cosmos 1943 3.1 17:54:05 10° SSW 17:59:46 89° NW 17:59:58 84° NNE
Cosmos 1371 Rocket 4.2 17:58:05 10° NNW 18:03:15 69° WSW 18:03:40 65° SW
Okean-O 3.8 18:01:08 10° S 18:05:20 42° W 18:09:34 10° NNW
ISS -1.0 18:04:45 10° W 18:05:55 19° W 18:05:55 19° W
ARGOS 3.2 18:08:32 70° NNW 18:08:32 70° NNW 18:13:20 10° NNW
Cosmos 2056 Rocket 3.7 18:04:17 10° NNW 18:09:29 70° WSW 18:09:29 70° WSW
CENTAUR R/B 3.4 18:04:11 10° SSW 18:07:44 35° S 18:07:44 35° S
ERS-2 4.3 18:10:45 26° WNW 18:10:45 26° WNW 18:13:27 10° WSW
Cosmos 1605 Rocket 4.2 18:16:51 10° NNW 18:21:48 61° NNW 18:21:48 61° NNW
Cosmos 371 Rocket 4.5 18:23:52 10° NW 18:28:00 40° W 18:28:00 40° W
Lacrosse 5 rocket 4.0 18:25:06 10° W 18:25:53 15° WNW 18:25:53 15° WNW
NOSS 3-2 (A) 4.1 18:37:28 10° SW 18:41:27 47° SW 18:41:27 47° SW
USA 215 3.8 18:46:42 49° SW 18:46:42 49° SW 18:51:25 10° SW
SL-16 R/B 4.1 18:41:40 10° W 18:46:03 22° NNW 18:46:58 21° NNW
USA 238 DEB 4.4 18:56:09 10° SW 19:00:35 45° WSW 19:00:35 45° WSW
USA 238 4.4 18:56:15 10° SW 19:00:39 45° WSW 19:00:39 45° WSW
H-2A R/B 4.3 19:15:55 18° WSW 19:17:21 20° W 19:21:05 10° NW
USA 267 4.4 19:21:32 35° WSW 19:21:32 35° WSW 19:26:29 10° WNW
